Terug naar catalogus

ATLAS 5 CENTAUR DEB

LostHEO
NORAD 46872·DEBRIS·🇺🇸 United States

Gelanceerd Oct 17, 2018 vanaf Cape Canaveral Space Force Station

Loading…

Volgende Passages (komende 24 uur)

TLE

VerouderdSource: Space-Track

Epoch: Nov 8, 2020, 00:24 UTC

1 46872U 18079ED  20313.01701703 -.00000096  00000-0  00000-0 0  9996
2 46872  13.7992 191.5805 4769564 353.3779   2.2382  1.80042767   100

Volg ATLAS 5 CENTAUR DEB in realtime met AllMySat

Download on the App Store